Regional Weather Roundup
Issued by NWS

Home | Current Version | Previous Version | Text Only | Print | Product List | Glossary Off
Versions: 1 2 3 4 5 6 7 8 9 10 11 12 13 14 15 16 17 18 19 20 21 22 23 24 25 26 27 28 29 30 31 32 33 34 35 36 37 38 39 40 41 42 43 44 45 46 47 48 49 50

000
ASUS43 KLMK 270902
RWRKY
KENTUCKY REGIONAL WEATHER ROUNDUP
NATIONAL WEATHER SERVICE LOUISVILLE KY
400 AM EST SAT DEC 27 2014

NOTE "FAIR" INDICATES FEW OR NO CLOUDS BELOW 12,000 FEET
WITH NO SIGNIFICANT WEATHER AND/OR OBSTRUCTIONS TO VISIBILITY.

KYZ001>023-026-027-061>063-070>075-271000-
WESTERN AND SOUTH CENTRAL KENTUCKY

CITY           SKY/WX    TMP DP  RH WIND       PRES   REMARKS
PADUCAH        CLOUDY    47  43  86 S5        30.13S
HENDERSON      CLOUDY    48  37  66 S7        30.14F
OWENSBORO      CLOUDY    47  40  76 S10       30.16F
HOPKINSVILLE   CLOUDY    48  39  70 S6        30.17S
BOWLING GREEN  CLOUDY    47  37  68 SE6       30.20F
GLASGOW        NOT AVBL
$$

KYZ024-025-028>034-038-045-046-053-271000-
NORTH CENTRAL KENTUCKY

CITY           SKY/WX    TMP DP  RH WIND       PRES   REMARKS
LOUISVILLE/SDF CLOUDY    48  35  60 SE5       30.19F
LOUISVILLE/LOU CLOUDY    48  35  60 S3        30.19F
FORT KNOX      CLOUDY    47  37  68 S6        30.17F
$$

KYZ035>037-039>044-047>052-055>060-089>105-271000-
NORTHEAST KENTUCKY

CITY           SKY/WX    TMP DP  RH WIND       PRES   REMARKS
LEXINGTON      CLOUDY    45  34  65 S5        30.22S
COVINGTON      PTCLDY    36  30  79 S6        30.19S WCI  31
FRANKFORT      CLOUDY    46  34  62 S5        30.20S
$$

KYZ054-064>069-076>088-106>120-271000-
SOUTHEAST KENTUCKY

CITY           SKY/WX    TMP DP  RH WIND       PRES   REMARKS
JACKSON        CLOUDY    45  27  49 CALM      30.24S
LONDON         CLOUDY    44  32  62 CALM      30.26R
SOMERSET       NOT AVBL
MIDDLESBORO    CLOUDY    42  36  79 CALM      30.27R
MONTICELLO     CLOUDY    44  40  86 CALM      30.27S
$$




USA.gov is the U.S. government's official web portal to all federal, state and local government web resources and services.